contact:dominique.lefevre@mio.osupytheas.fr, maurice.libes@osupytheas.fr
Project:EMSO Ligure-ouest http://www.emso-fr.org/EMSO-France
Sensor Aquadopp, line 13 Serial AQD14315 
DOI : "https://doi.org/10.17882/74513; https://doi.org/10.17882/83244" 
Title:EMSO Ligure Ouest : Data ligne ALBATROSS capteur AQUADOPP - deploiement 2021
Id,Date,Profondeur,Latitude,Longitude,X_East,Y_North,Z_Up,Amplitude_X,Amplitude_Y,Amplitude_Z,Batterie,SoundSpeed,Heading,Pitch,Roll,Pressure,Temperature,Speed,Direction
, , m, degrees North, degrees East, m.s-1, m.s-1,m.s-1, 1, 1, 1, Volt, m.s-1, degree, degree, degree, dbar, degree_C, m.s-1, degree
11,2022-03-29T22:00:00,2200.0,42.79,6.0312,0.032,-0.049,-0.003,65.0,68.0,70.0,12.1,1504.3,137.2,-0.4,0.1,2192.586,13.18,0.058,146.8
11,2022-03-29T22:30:00,2200.0,42.79,6.0312,0.034,-0.042,0.015,67.0,70.0,72.0,12.1,1504.3,151.8,-0.6,0.3,2192.611,13.18,0.054,141.0
11,2022-03-29T23:00:00,2200.0,42.79,6.0312,0.032,-0.055,0.007,66.0,68.0,68.0,12.1,1504.3,155.4,-0.2,0.3,2192.584,13.18,0.063,149.8
11,2022-03-29T23:30:00,2200.0,42.79,6.0312,0.022,-0.062,0.0,65.0,69.0,69.0,12.1,1504.3,168.5,-0.2,0.2,2192.55,13.18,0.065,160.5
11,2022-03-30T00:00:00,2200.0,42.79,6.0312,-0.004,-0.052,0.02,66.0,69.0,71.0,12.1,1504.3,173.4,-0.4,0.0,2192.548,13.18,0.052,184.4
11,2022-03-30T00:30:00,2200.0,42.79,6.0312,-0.014,-0.056,0.01,65.0,71.0,71.0,12.1,1504.3,195.2,-0.3,0.0,2192.545,13.18,0.057,194.0
11,2022-03-30T01:00:00,2200.0,42.79,6.0312,0.001,-0.052,-0.002,67.0,69.0,70.0,12.1,1504.3,184.2,-0.4,0.1,2192.545,13.18,0.052,178.9
11,2022-03-30T01:30:00,2200.0,42.79,6.0312,-0.011,-0.059,0.008,67.0,69.0,72.0,12.1,1504.3,189.7,-0.5,0.2,2192.585,13.18,0.06,190.6
11,2022-03-30T02:00:00,2200.0,42.79,6.0312,-0.026,-0.044,-0.002,66.0,69.0,69.0,12.1,1504.3,209.5,-0.3,0.1,2192.571,13.18,0.051,210.6
11,2022-03-30T02:30:00,2200.0,42.79,6.0312,-0.034,-0.037,0.007,66.0,68.0,69.0,12.1,1504.3,198.3,-0.4,0.2,2192.582,13.18,0.05,222.6
11,2022-03-30T03:00:00,2200.0,42.79,6.0312,-0.024,-0.042,0.012,64.0,66.0,69.0,12.1,1504.3,202.1,0.0,-0.1,2192.636,13.18,0.048,209.7
11,2022-03-30T03:30:00,2200.0,42.79,6.0312,-0.005,-0.047,0.006,64.0,67.0,69.0,12.1,1504.3,195.0,-0.3,-0.2,2192.658,13.18,0.047,186.1
11,2022-03-30T04:00:00,2200.0,42.79,6.0312,-0.013,-0.033,0.0,63.0,65.0,68.0,12.1,1504.3,202.0,-0.3,-0.1,2192.712,13.18,0.035,201.5
11,2022-03-30T04:30:00,2200.0,42.79,6.0312,-0.012,-0.031,-0.01,63.0,65.0,67.0,12.1,1504.3,198.2,-0.4,0.0,2192.757,13.18,0.033,201.2
11,2022-03-30T05:00:00,2200.0,42.79,6.0312,-0.01,-0.041,-0.002,64.0,66.0,68.0,12.1,1504.3,202.3,0.0,-0.1,2192.805,13.18,0.042,193.7
11,2022-03-30T05:30:00,2200.0,42.79,6.0312,-0.025,-0.036,0.002,65.0,69.0,69.0,12.1,1504.3,210.6,-0.2,0.0,2192.788,13.18,0.043,214.8
11,2022-03-30T06:00:00,2200.0,42.79,6.0312,-0.018,-0.049,0.016,65.0,69.0,68.0,12.1,1504.3,203.6,-0.3,0.1,2192.742,13.18,0.052,200.2
11,2022-03-30T06:30:00,2200.0,42.79,6.0312,-0.008,-0.044,0.011,66.0,68.0,71.0,12.1,1504.3,219.0,-0.4,0.1,2192.794,13.18,0.044,190.3
11,2022-03-30T07:00:00,2200.0,42.79,6.0312,-0.017,-0.032,-0.004,66.0,67.0,71.0,12.1,1504.3,219.6,-0.1,-0.1,2192.773,13.18,0.036,208.0
11,2022-03-30T07:30:00,2200.0,42.79,6.0312,-0.013,-0.035,0.002,66.0,68.0,70.0,12.1,1504.3,228.9,-0.4,-0.1,2192.752,13.18,0.037,200.4
11,2022-03-30T08:00:00,2200.0,42.79,6.0312,0.003,-0.026,0.009,65.0,69.0,69.0,12.1,1504.3,227.1,-0.2,0.2,2192.736,13.18,0.026,173.4
11,2022-03-30T08:30:00,2200.0,42.79,6.0312,-0.005,-0.025,-0.011,66.0,68.0,68.0,12.1,1504.3,222.8,-0.3,0.1,2192.717,13.18,0.025,191.3
11,2022-03-30T09:00:00,2200.0,42.79,6.0312,-0.006,-0.031,0.014,67.0,70.0,71.0,12.1,1504.3,223.1,-0.1,0.2,2192.7,13.18,0.031,191.0
11,2022-03-30T09:30:00,2200.0,42.79,6.0312,0.001,-0.038,0.0,67.0,70.0,69.0,12.1,1504.3,227.7,-0.1,-0.1,2192.699,13.18,0.038,178.5
11,2022-03-30T10:00:00,2200.0,42.79,6.0312,-0.011,-0.035,-0.01,65.0,68.0,70.0,12.1,1504.3,224.8,-0.4,0.1,2192.655,13.18,0.036,197.4
11,2022-03-30T11:00:00,2200.0,42.79,6.0312,-0.015,-0.032,-0.003,66.0,67.0,69.0,12.1,1504.3,226.8,-0.3,-0.2,2192.586,13.19,0.035,205.1
11,2022-03-30T11:30:00,2200.0,42.79,6.0312,-0.019,-0.045,0.008,66.0,69.0,70.0,12.1,1504.3,234.3,-0.4,-0.2,2192.57,13.19,0.048,202.9
11,2022-03-30T12:00:00,2200.0,42.79,6.0312,-0.007,-0.044,0.014,66.0,68.0,69.0,12.1,1504.3,226.6,-0.5,-0.1,2192.582,13.19,0.044,189.0
11,2022-03-30T12:30:00,2200.0,42.79,6.0312,-0.019,-0.043,-0.001,66.0,68.0,71.0,12.1,1504.3,217.2,-0.5,0.3,2192.53,13.19,0.047,203.8
11,2022-03-30T13:00:00,2200.0,42.79,6.0312,-0.022,-0.041,0.011,65.0,69.0,70.0,12.1,1504.3,229.5,-0.1,0.0,2192.541,13.19,0.046,208.2
11,2022-03-30T13:30:00,2200.0,42.79,6.0312,-0.03,-0.035,0.006,65.0,68.0,69.0,12.1,1504.3,219.3,-0.2,0.2,2192.509,13.19,0.046,220.6
11,2022-03-30T14:00:00,2200.0,42.79,6.0312,-0.027,-0.03,0.008,65.0,68.0,71.0,12.1,1504.3,229.1,-0.6,0.1,2192.534,13.19,0.04,222.0
11,2022-03-30T14:30:00,2200.0,42.79,6.0312,-0.038,-0.02,0.006,65.0,72.0,72.0,12.1,1504.3,236.5,-0.1,0.2,2192.555,13.19,0.042,242.2
11,2022-03-30T15:00:00,2200.0,42.79,6.0312,-0.031,-0.017,0.0,66.0,68.0,71.0,12.1,1504.3,231.0,-0.5,0.0,2192.593,13.18,0.035,241.3
11,2022-03-30T15:30:00,2200.0,42.79,6.0312,-0.042,-0.016,0.014,64.0,69.0,70.0,12.1,1504.3,232.4,-0.4,0.1,2192.59,13.19,0.044,249.1
11,2022-03-30T16:00:00,2200.0,42.79,6.0312,-0.028,-0.01,0.0,65.0,67.0,71.0,12.1,1504.3,229.4,-0.5,-0.2,2192.615,13.19,0.029,250.4
11,2022-03-30T16:30:00,2200.0,42.79,6.0312,-0.03,-0.013,0.006,65.0,68.0,69.0,12.1,1504.3,232.5,-0.4,-0.1,2192.657,13.19,0.032,246.6
11,2022-03-30T17:00:00,2200.0,42.79,6.0312,-0.03,-0.018,0.0,66.0,71.0,70.0,12.1,1504.3,230.0,-0.1,-0.2,2192.681,13.19,0.034,239.0
11,2022-03-30T17:30:00,2200.0,42.79,6.0312,-0.026,-0.015,0.024,63.0,68.0,68.0,12.1,1504.3,231.8,-0.3,0.0,2192.696,13.18,0.03,240.0
11,2022-03-30T18:00:00,2200.0,42.79,6.0312,-0.028,-0.009,0.002,62.0,66.0,67.0,12.1,1504.3,238.7,-0.4,-0.2,2192.686,13.19,0.029,252.2
11,2022-03-30T18:30:00,2200.0,42.79,6.0312,-0.024,-0.008,-0.005,62.0,66.0,68.0,12.1,1504.3,242.8,-0.5,0.2,2192.668,13.19,0.025,251.6
11,2022-03-30T19:00:00,2200.0,42.79,6.0312,-0.034,-0.009,0.006,63.0,64.0,69.0,12.1,1504.3,239.9,-0.1,-0.1,2192.671,13.18,0.035,255.2
11,2022-03-30T20:00:00,2200.0,42.79,6.0312,-0.031,-0.012,0.005,61.0,64.0,66.0,12.1,1504.3,248.1,-0.3,0.0,2192.645,13.18,0.033,248.8
11,2022-03-30T20:30:00,2200.0,42.79,6.0312,-0.028,-0.014,0.01,63.0,66.0,66.0,12.1,1504.3,250.3,-0.2,-0.1,2192.669,13.18,0.031,243.4
11,2022-03-30T21:00:00,2200.0,42.79,6.0312,-0.032,-0.009,0.004,62.0,64.0,65.0,12.1,1504.3,246.6,-0.2,-0.1,2192.641,13.18,0.033,254.3
